Wind_Speed
13 14 15 16 17 18 18 19 20 21 22 22 22 21 21 21 21 22 23 24 25 25 25 24 23 22 21 20 20 21 21 21 21 21 22 22 22 22 22 23 23 23 23 23 23 23 23 23 23 23 23 22 23 23 23 23 24 24 24 24 24 25 25 25 25 26 26 26 26 26 27 27 27 27 27 28 28 28 29 29 29 29 30 30 30 30
13 14 14 15 15 17 18 19 19 20 21 21 21 21 21 21 22 23 24 25 25 25 24 23 22 21 21 21 21 21 21 21 21 22 22 22 23 23 23 23 23 23 23 23 23 23 23 23 23 22 23 23 23 23 23 24 24 24 25 25 25 25 25 25 26 26 26 26 27 27 27 27 28 28 28 28 29 29 29 30 30 30 30 30 30 30
13 13 13 14 15 16 17 18 19 19 19 20 20 20 20 21 22 24 25 26 25 24 23 22 21 21 21 22 22 22 22 22 22 22 23 23 23 24 24 24 24 24 24 23 23 23 23 23 23 23 23 23 23 24 24 24 25 25 25 25 25 26 26 26 26 27 27 27 27 28 28 28 28 28 29 29 29 29 30 30 30 30 30 30 30 30
12 13 14 15 15 16 17 18 18 19 19 19 19 19 20 21 22 24 25 25 25 24 22 21 20 20 21 22 23 24 23 23 22 23 23 24 24 24 24 24 24 24 23 23 23 23 23 23 23 23 23 24 24 24 24 25 25 26 26 26 26 27 27 27 27 27 27 27 28 28 28 28 28 28 29 29 29 29 29 29 29 29 29 29 29 29
13 13 14 15 15 16 16 17 18 19 19 19 19 19 20 21 23 24 24 24 24 23 21 20 20 20 21 22 24 25 24 23 23 23 24 24 24 24 24 24 23 23 23 23 23 23 23 23 23 23 24 24 24 25 25 25 26 26 27 27 27 27 27 27 27 28 28 28 28 28 28 28 28 28 28 28 28 29 29 29 29 29 29 29 29 29
13 13 14 14 15 16 17 17 18 18 19 19 19 20 20 21 22 23 23 23 22 21 20 20 20 21 22 23 25 25 25 24 24 24 24 24 23 23 23 23 23 23 23 23 23 23 23 23 23 24 24 25 25 25 26 26 27 27 27 28 28 28 28 28 28 28 27 27 27 27 27 27 27 27 27 28 28 28 28 28 28 28 28 28 28 28
14 14 14 15 15 16 17 17 17 17 18 19 20 21 21 21 22 22 21 21 20 20 20 20 21 22 23 24 25 25 25 25 25 24 24 23 23 22 22 22 22 22 22 23 23 23 23 23 24 24 25 25 26 26 27 27 27 27 28 28 28 28 28 27 27 27 27 27 27 27 26 26 27 27 27 27 27 27 27 27 27 28 28 28 28 28
15 16 15 15 16 16 17 16 16 17 18 20 22 22 22 21 21 20 20 19 18 18 19 20 22 23 24 24 25 25 25 26 25 25 24 23 23 22 22 22 22 22 22 22 23 23 23 24 24 25 26 26 27 27 28 28 28 28 28 27 27 27 27 27 26 26 26 26 26 26 26 26 26 26 26 26 26 26 27 27 27 27 28 28 28 28
16 16 16 15 15 17 17 17 17 18 20 21 22 22 21 21 20 19 18 17 17 17 19 21 22 24 24 24 25 25 25 25 24 24 23 23 23 23 22 22 22 22 22 22 23 23 24 24 25 26 27 27 28 28 28 28 28 28 27 27 26 26 26 26 26 25 25 25 25 25 25 25 25 26 26 26 26 26 27 27 27 27 28 28 28 28
15 15 15 16 16 16 18 19 20 21 21 20 20 19 19 19 19 19 18 18 18 18 19 20 22 23 24 25 25 25 25 24 24 23 22 22 22 22 22 22 22 22 22 22 23 24 25 25 26 27 27 27 28 28 28 27 27 27 26 26 26 26 25 25 25 25 25 25 25 25 25 25 25 26 26 26 26 26 27 27 27 28 28 28 28 29
13 14 15 16 17 17 17 19 20 21 20 18 17 16 16 16 17 17 18 19 20 20 20 20 21 22 24 25 25 26 25 25 24 24 23 23 22 22 22 22 22 22 23 23 24 25 25 26 26 27 27 27 27 27 27 26 26 26 26 26 26 25 25 25 25 25 25 25 25 25 25 26 26 26 26 26 27 27 27 28 28 28 28 29 29 29
13 14 15 16 17 17 17 17 18 17 16 15 15 15 15 15 15 16 18 19 20 21 21 21 21 21 23 24 25 25 25 25 25 25 24 24 23 22 22 22 22 23 24 24 25 25 26 26 26 26 27 27 26 26 26 26 26 26 26 26 25 25 25 25 25 25 25 25 25 25 26 26 26 27 27 27 27 28 28 28 28 29 29 29 29 29
13 14 14 16 16 16 16 16 15 14 13 14 14 15 16 16 16 17 17 19 20 21 21 22 22 22 23 23 24 24 24 24 24 24 23 23 22 22 22 22 23 24 25 26 26 26 27 27 26 26 26 26 26 26 26 26 26 26 25 25 25 25 25 25 25 25 25 26 26 26 27 27 27 27 27 28 28 28 28 28 29 29 29 29 29 29
14 14 15 16 16 16 15 15 14 14 14 14 15 16 16 17 17 17 18 18 19 20 21 21 22 22 22 22 22 21 22 22 23 22 22 21 21 21 22 23 24 25 26 26 27 27 27 26 27 27 28 28 28 28 28 27 26 25 25 25 25 25 25 26 26 26 26 26 27 27 27 27 27 27 28 28 28 28 28 29 29 29 29 29 29 29
14 15 15 15 15 15 14 13 14 15 15 16 16 17 17 17 17 17 17 18 19 20 21 21 21 21 20 19 19 19 20 20 21 21 22 22 22 22 23 24 25 26 26 26 27 27 27 27 28 29 29 30 30 29 28 27 26 25 26 26 26 26 27 27 27 27 27 27 27 27 27 28 28 28 28 28 28 29 29 29 29 30 30 30 30 30
14 14 13 14 14 14 13 14 15 16 17 17 17 16 16 16 16 16 17 18 20 20 20 19 19 19 19 18 18 18 18 19 19 21 23 24 24 23 23 25 26 26 26 26 27 27 27 27 28 29 29 30 29 28 27 26 26 26 27 27 27 27 28 28 28 28 28 28 28 28 28 28 28 28 29 29 29 29 29 29 30 30 30 30 30 30
13 13 13 14 14 14 15 16 16 17 17 17 16 16 15 15 16 17 18 19 19 19 18 17 15 13 15 18 18 17 18 19 20 21 24 26 26 25 24 24 25 26 27 27 27 27 27 27 28 29 29 29 29 28 27 27 27 28 28 28 28 28 28 28 28 28 28 29 29 29 29 29 29 29 29 29 29 30 30 30 30 30 30 30 30 30
11 10 11 12 13 15 17 17 17 17 17 16 16 16 16 16 18 19 19 19 19 18 18 17 15 12 12 15 18 19 19 20 22 23 25 27 27 26 24 23 24 26 27 27 27 27 27 27 28 29 29 29 28 28 28 28 28 29 29 29 29 29 29 29 29 29 29 29 29 29 29 29 29 29 29 29 30 30 30 30 30 30 30 30 30 30
10 11 12 14 16 17 17 17 17 17 16 15 15 16 17 18 19 20 20 20 19 18 17 16 16 15 15 17 20 21 21 21 22 24 25 27 28 27 24 23 23 25 26 26 27 27 27 27 28 29 29 29 29 29 29 29 29 29 29 29 29 30 30 30 30 30 30 30 30 30 30 30 30 30 30 30 30 30 30 30 30 30 30 30 30 30
14 15 16 16 17 18 18 18 17 16 16 16 17 18 19 20 21 20 20 20 19 18 17 16 16 16 17 19 21 23 23 23 23 24 25 26 27 26 24 22 23 24 25 26 27 26 26 27 28 29 29 29 29 29 29 29 29 30 30 30 30 31 31 31 31 31 31 31 31 30 30 30 30 30 30 30 30 30 29 29 30 30 30 29 30 30
17 18 18 18 17 17 16 17 17 17 18 19 20 21 21 22 21 20 19 18 17 16 15 14 15 17 19 21 24 26 26 24 23 23 23 24 25 25 23 22 22 23 25 26 26 26 26 26 28 28 29 29 29 29 29 30 30 31 31 31 31 31 31 31 31 31 31 31 31 31 31 30 30 30 30 30 30 30 30 30 30 30 30 30 30 30
19 19 19 19 18 17 17 19 20 20 21 23 23 22 22 22 20 19 18 17 16 15 14 15 17 20 23 25 26 27 26 24 22 21 20 20 23 24 23 21 21 23 24 26 26 26 26 26 27 28 29 29 29 29 29 30 30 31 31 31 32 32 32 32 32 32 31 31 31 31 31 31 31 30 30 30 30 30 30 30 30 30 30 31 31 31
19 19 19 19 18 18 19 20 22 23 24 25 25 24 23 23 21 19 17 16 16 17 18 20 23 24 25 25 26 26 25 23 21 19 18 16 19 23 23 21 21 22 24 25 26 26 26 27 28 28 28 28 28 29 29 30 30 31 31 32 32 32 32 32 32 32 32 32 32 31 31 31 31 31 31 30 31 30 30 30 30 30 31 31 31 31
17 18 18 19 19 20 21 22 23 24 24 24 23 23 22 20 18 17 18 19 20 21 23 24 24 24 24 24 24 23 22 20 18 17 16 16 19 23 23 22 22 23 25 25 25 26 26 27 28 28 28 28 28 28 29 30 30 31 31 31 32 32 32 32 32 32 32 32 32 32 32 32 31 31 31 31 31 31 31 30 30 30 30 30 30 30
18 19 20 20 20 21 21 21 21 22 22 21 20 20 20 20 21 23 24 24 24 23 22 22 21 21 21 21 21 21 20 18 17 16 16 16 20 23 24 22 21 22 25 26 26 25 26 27 28 28 28 28 29 29 29 30 30 30 31 31 31 31 31 31 31 31 31 32 32 32 32 32 32 32 32 32 31 31 30 30 30 30 30 30 30 30
17 18 18 18 18 19 19 20 20 20 21 21 22 23 24 24 24 24 24 23 21 19 19 18 17 18 19 19 20 20 20 18 16 15 16 16 19 22 23 22 21 22 24 26 26 25 25 26 28 28 29 29 29 29 29 29 30 30 30 30 31 31 31 31 31 31 32 32 32 33 33 33 33 32 32 31 31 30 30 30 30 30 30 30 30 30
16 16 16 17 17 17 18 19 19 20 21 22 22 22 22 22 21 20 20 19 17 16 15 14 14 15 18 18 19 20 20 19 17 16 16 18 19 20 22 22 21 22 24 25 26 25 25 26 27 28 29 29 30 30 29 29 29 29 29 30 30 30 31 31 31 32 32 33 33 33 33 32 32 32 31 31 30 30 30 30 30 30 30 30 29 29
15 15 15 16 16 17 18 19 21 22 23 23 23 22 20 19 18 17 16 16 15 14 14 13 13 13 14 16 19 21 22 20 19 17 17 17 17 18 21 21 21 21 23 25 26 26 25 25 26 27 28 28 28 28 28 28 28 29 29 30 30 31 31 31 32 32 32 32 32 32 32 32 31 31 31 31 30 30 30 30 29 29 29 29 28 27
16 16 16 17 18 19 21 23 24 24 24 22 20 18 16 15 15 15 15 15 15 15 15 15 15 14 15 17 21 23 23 21 19 16 15 14 15 18 21 21 21 21 22 24 26 27 25 24 23 24 25 26 26 27 28 28 29 30 30 31 31 31 31 31 31 31 31 31 31 31 31 31 31 31 31 30 30 30 29 29 29 29 28 27 26 26
16 17 19 20 22 23 24 24 24 23 20 17 15 13 13 13 14 15 16 16 16 15 15 16 16 16 16 17 17 18 18 19 16 13 13 13 15 18 21 21 21 21 21 20 18 17 20 23 22 21 22 24 25 27 28 29 30 30 30 30 30 30 30 30 30 30 30 31 31 31 31 31 31 31 30 30 30 30 29 29 29 28 27 26 26 26
18 20 22 24 25 25 24 23 21 18 16 14 13 13 13 13 14 15 15 16 16 16 16 16 16 16 16 13 9 7 10 17 17 14 14 15 16 19 20 20 21 22 20 16 8 5 11 17 21 22 22 23 25 27 29 29 29 29 29 29 30 30 30 30 30 30 30 30 30 30 30 30 30 30 30 30 30 30 30 29 29 27 26 26 25 25
22 24 25 26 26 25 23 20 17 15 14 13 13 13 13 13 13 14 15 15 15 16 16 16 17 17 16 15 11 10 13 20 21 19 18 17 18 20 20 20 21 22 21 19 15 10 8 10 18 26 25 25 26 28 28 28 28 28 28 29 29 30 31 30 30 30 30 30 30 30 30 30 30 30 30 30 30 30 30 29 28 27 26 25 25 24
24 25 26 26 24 22 20 17 16 15 14 14 14 14 14 14 14 14 14 15 15 16 16 17 17 17 18 18 18 19 22 25 24 21 19 18 18 19 20 20 21 22 22 22 21 19 15 15 21 26 27 27 27 27 27 27 27 27 27 28 29 30 30 30 29 29 30 30 31 31 31 31 31 31 30 30 30 29 29 28 28 26 25 24 24 24
25 26 25 24 22 19 17 16 15 14 14 14 14 14 14 14 14 15 15 15 16 16 17 17 18 18 18 19 20 22 25 26 24 21 19 18 18 19 21 21 22 22 22 22 22 22 21 23 24 24 25 27 28 27 26 26 27 27 27 28 28 29 30 29 29 29 30 30 30 31 31 31 32 31 31 30 30 29 28 27 26 26 25 24 24 25
25 24 23 20 19 17 16 15 15 14 14 14 14 14 14 15 15 16 16 17 17 17 18 19 19 19 20 19 20 22 25 26 25 22 20 20 20 21 22 22 22 22 21 21 21 20 20 23 25 24 23 25 27 28 27 26 26 27 27 27 28 28 29 29 29 30 30 30 30 30 30 31 32 32 31 30 29 28 27 27 26 26 26 26 26 25
22 20 19 17 16 16 15 15 15 14 14 14 15 15 15 16 16 16 17 17 18 18 19 19 20 21 22 22 22 24 26 28 27 26 23 23 23 22 22 23 23 23 21 21 21 20 19 21 24 25 24 22 23 26 28 27 26 26 26 27 27 28 28 29 29 29 29 29 29 29 30 30 30 30 31 30 29 28 27 27 27 27 27 27 27 27
17 17 16 15 15 14 14 15 14 14 15 15 16 16 16 17 17 17 18 18 19 20 20 21 21 22 23 24 25 27 28 30 30 29 28 28 27 26 24 25 25 24 22 22 22 22 21 21 22 23 23 21 21 22 26 28 28 27 27 27 27 27 28 28 28 28 28 28 28 29 29 28 28 29 29 29 29 28 28 28 28 27 27 27 27 27
14 14 14 14 14 14 14 15 15 15 15 16 16 17 18 18 18 19 19 19 20 21 21 22 22 23 24 25 27 29 31 32 33 34 33 32 31 29 27 26 26 25 24 22 22 23 22 19 16 14 17 21 24 26 27 28 27 27 28 28 28 27 27 28 27 27 26 27 27 28 28 27 28 28 29 29 29 29 28 28 28 28 27 26 26 26
13 13 13 14 13 14 14 15 15 16 16 17 18 18 19 19 19 19 19 20 20 21 21 22 23 24 26 27 28 29 30 31 32 33 33 32 31 30 28 27 26 26 26 25 24 23 22 20 17 15 15 18 23 27 28 27 27 28 28 29 28 28 27 26 25 25 25 26 26 27 27 27 28 28 28 28 28 28 27 28 28 27 26 26 26 26
13 13 13 13 13 14 14 15 16 17 18 19 19 19 19 19 19 19 20 20 20 21 21 22 23 24 25 26 26 27 28 29 30 31 31 30 30 29 28 27 27 27 26 26 25 24 23 22 22 23 23 22 23 25 27 28 28 28 27 26 26 27 27 26 25 25 25 26 26 27 27 27 26 26 26 26 26 26 26 27 27 27 26 25 25 25
12 13 14 14 14 15 15 16 17 17 18 18 18 18 18 18 19 19 20 21 21 21 21 21 22 23 25 25 26 26 27 27 28 28 28 28 28 28 28 28 27 27 27 26 25 24 24 24 24 25 25 25 26 27 27 29 29 29 28 25 26 28 30 29 28 26 25 25 25 25 25 26 26 25 25 25 26 27 28 27 27 27 26 26 25 24
12 13 14 15 15 16 16 17 17 17 17 17 17 17 18 18 19 19 20 21 21 21 21 21 22 23 25 26 26 26 26 25 25 25 25 25 25 26 26 27 27 27 26 25 25 25 25 25 24 24 25 26 25 25 26 29 30 30 28 27 28 29 29 29 27 25 24 24 24 24 24 25 25 25 25 25 26 27 28 29 29 28 27 26 27 27
13 14 14 15 16 16 17 17 17 16 17 17 17 17 18 18 18 19 19 20 21 21 22 21 22 22 24 25 27 27 26 25 24 23 23 23 23 24 25 26 27 27 27 26 25 25 26 26 25 25 26 26 25 25 26 28 30 30 29 28 27 25 22 26 27 26 25 25 25 25 25 25 26 26 26 26 27 28 29 28 29 29 28 28 28 29
14 15 15 16 16 16 16 16 16 16 16 17 17 18 18 18 18 19 19 19 20 21 21 21 21 22 23 24 26 28 28 26 24 23 22 22 22 22 23 24 25 26 27 26 25 24 25 26 26 26 27 26 25 25 26 28 29 29 30 29 27 25 23 25 28 28 27 27 26 26 26 26 27 27 27 27 27 27 27 27 28 29 29 30 30 30
14 15 15 16 16 16 16 16 16 17 17 17 18 18 18 18 18 18 19 20 20 21 21 20 20 20 21 23 25 26 27 27 27 25 23 22 21 21 22 23 24 25 26 26 26 25 24 25 26 27 27 26 25 25 26 27 28 29 29 29 28 27 28 29 29 28 27 27 27 28 27 28 28 27 27 27 27 26 26 25 26 27 29 29 30 30
14 15 15 16 16 16 16 17 17 17 17 17 18 18 18 18 18 18 19 19 20 20 21 20 19 18 20 22 24 25 26 27 28 27 26 24 23 23 22 23 23 24 25 26 27 27 27 27 27 28 28 27 26 27 28 27 27 27 28 29 28 28 28 29 29 28 28 27 28 29 29 28 27 25 25 26 27 27 26 26 25 26 27 27 28 29
14 15 16 16 16 16 17 17 17 17 17 18 18 18 18 18 18 18 19 19 19 19 20 20 19 19 20 21 22 22 23 25 27 28 28 27 27 26 25 24 23 23 24 25 26 28 29 30 30 28 26 25 25 26 28 28 28 27 28 28 28 27 27 28 28 28 27 27 28 29 29 28 26 25 26 26 27 26 26 26 26 26 26 26 26 27
15 15 16 16 17 17 17 17 17 17 17 18 18 19 18 18 18 18 18 19 19 19 19 19 19 19 20 21 21 22 22 23 25 27 28 28 27 27 26 25 25 24 24 25 26 26 28 29 30 30 29 26 25 25 27 28 28 27 27 27 27 26 27 28 29 29 28 28 29 29 29 27 25 25 26 26 26 26 26 26 25 25 25 25 25 26
15 16 16 16 16 17 17 17 17 17 18 18 19 19 19 19 18 18 18 18 19 19 18 18 19 19 20 21 22 22 23 23 24 25 26 26 26 27 27 27 26 25 25 26 26 25 25 26 27 28 28 28 27 27 28 29 29 28 27 26 26 25 26 28 29 29 28 28 29 30 29 27 26 25 25 24 25 26 27 26 25 24 24 24 24 25
16 16 16 16 16 16 17 17 17 17 18 18 19 19 19 19 19 19 18 18 18 18 18 18 19 19 20 21 22 22 23 23 23 24 25 25 25 25 25 26 26 25 25 25 25 24 24 24 24 24 24 25 26 27 28 28 29 28 27 26 26 25 25 27 28 28 27 27 27 28 27 27 26 25 24 23 24 26 27 26 25 24 23 23 24 26
16 16 16 16 16 17 17 17 18 18 18 18 19 19 19 19 19 19 19 19 18 18 19 19 19 19 20 21 22 22 23 22 23 24 25 26 25 24 24 24 24 23 22 21 20 20 20 18 19 21 23 23 22 23 25 26 27 27 26 26 26 26 25 26 27 27 27 26 26 26 26 26 25 24 23 23 23 23 24 24 24 24 24 24 24 26
Wind_Direction
290 292 295 297 300 302 303 305 308 310 312 315 318 319 319 318 317 316 316 315 315 315 315 315 316 317 318 318 318 316 312 309 307 307 306 305 304 304 303 303 303 302 302 302 302 301 301 300 300 299 298 298 297 296 295 295 294 293 292 290 289 288 288 287 287 286 286 286 285 284 284 284 283 283 283 282 281 281 280 279 278 278 278 277 277 276
292 294 296 298 301 302 302 304 307 310 312 314 316 317 317 316 315 314 314 314 314 315 315 315 316 316 317 317 317 315 312 309 307 306 306 305 304 304 303 303 303 303 303 302 302 301 301 300 300 299 299 298 297 296 296 295 295 293 292 290 289 288 288 287 287 286 286 285 285 284 284 283 282 282 281 280 279 278 278 277 277 277 276 276 276 276
296 296 297 299 300 301 302 304 307 310 311 312 313 314 314 313 312 312 313 313 314 315 315 315 316 316 316 316 315 314 311 309 308 307 306 305 304 304 304 303 303 303 303 302 302 302 301 300 300 299 299 298 297 297 296 296 295 294 292 291 290 289 288 288 287 286 286 285 284 284 283 282 281 280 280 279 278 277 277 276 276 276 276 275 276 276
296 296 298 301 301 301 301 304 307 309 310 310 310 310 310 310 310 311 311 312 313 315 316 316 316 315 315 314 313 312 311 309 308 307 306 305 305 304 304 303 303 303 303 302 302 301 301 300 299 299 298 297 297 296 296 295 295 294 293 292 291 290 289 288 287 287 286 285 284 284 283 282 281 280 279 278 277 277 276 276 276 275 275 275 275 275
294 296 298 301 302 302 302 304 307 308 309 308 308 308 308 308 308 309 310 312 313 314 315 316 316 314 313 311 311 311 311 309 308 307 306 305 305 304 304 303 303 302 302 301 301 300 299 299 298 297 297 296 296 296 295 295 295 294 293 292 291 290 289 289 288 287 286 286 285 284 283 282 281 280 279 278 277 276 276 276 276 275 275 275 274 274
292 294 297 300 301 301 303 305 306 308 308 307 306 306 306 307 307 308 309 311 312 313 313 314 313 311 310 309 309 310 310 309 308 308 307 306 305 305 304 303 302 301 300 300 299 298 298 297 297 297 296 296 296 295 295 295 294 294 294 293 292 291 290 289 288 287 286 286 285 284 283 282 281 280 279 278 277 276 276 276 275 275 275 274 274 274
291 293 297 299 300 301 302 303 305 306 307 306 306 306 306 306 307 307 308 310 311 312 312 311 310 309 308 308 309 310 311 310 310 309 308 307 306 304 304 302 301 299 299 298 297 297 297 296 296 296 296 296 296 295 295 295 295 294 294 294 293 292 291 290 288 287 286 285 285 284 283 282 281 280 279 279 278 277 276 276 275 275 274 274 274 274
290 293 297 299 301 302 301 301 302 304 305 305 305 305 305 306 306 307 308 310 311 311 310 310 309 308 308 309 310 311 311 311 311 310 309 308 307 305 304 302 300 298 298 297 296 296 296 296 296 296 296 296 296 296 295 295 295 295 294 294 293 292 291 290 288 287 286 286 285 285 284 283 282 281 280 279 278 277 277 276 275 275 275 274 274 274
290 293 297 299 301 302 303 302 302 303 305 304 302 301 302 304 306 308 309 310 310 310 310 310 310 310 310 311 311 312 311 310 309 308 307 306 305 304 303 301 299 298 297 296 296 295 295 295 295 295 295 295 295 295 295 295 295 295 294 294 293 292 291 290 289 288 287 287 286 285 284 283 282 281 280 280 279 278 277 277 276 276 275 275 274 274
290 292 296 298 299 300 301 301 302 304 305 303 300 299 300 303 306 309 311 310 310 310 311 311 311 310 311 312 312 312 310 309 307 305 304 303 302 301 300 298 297 296 296 295 295 295 294 295 294 295 295 295 295 295 295 295 295 294 294 294 293 292 291 290 289 289 288 287 286 285 284 283 282 281 281 280 279 279 279 278 277 276 276 276 275 275
290 293 296 298 299 299 298 297 300 303 304 303 301 300 302 304 307 310 312 312 311 312 312 311 310 310 310 311 311 311 310 308 306 306 305 304 303 301 300 298 296 295 295 294 294 294 294 294 294 294 294 294 295 295 295 295 295 294 294 293 293 292 291 290 289 289 288 287 286 285 284 283 282 282 281 280 280 279 279 278 277 277 277 277 276 276
289 294 296 298 300 300 298 296 297 300 302 303 304 305 305 306 308 309 309 309 310 311 311 311 310 308 308 308 308 308 308 306 305 305 306 306 306 304 303 301 299 298 297 296 295 295 294 295 295 295 295 294 294 294 295 294 294 294 293 293 292 292 291 290 290 289 287 287 286 285 284 284 283 282 282 281 280 279 279 278 278 277 277 277 277 276
289 294 296 297 298 299 298 298 299 301 303 305 306 306 306 307 307 307 306 305 306 308 309 309 308 307 306 305 305 305 305 304 304 304 304 304 304 304 303 302 301 299 298 297 296 296 296 296 296 296 295 294 294 294 294 294 294 294 293 293 292 292 291 291 290 289 288 287 286 286 285 285 284 283 283 282 281 280 279 278 278 277 277 277 277 276
291 294 295 296 296 296 296 296 299 301 303 304 303 302 303 305 306 306 305 303 304 306 307 306 305 304 305 305 304 304 304 303 303 303 302 302 302 303 302 301 300 299 298 297 296 296 296 297 296 296 295 295 295 296 296 296 295 294 294 293 292 292 292 291 290 289 289 288 287 286 286 285 285 284 283 283 282 281 279 279 278 278 278 277 277 277
291 294 294 292 291 292 293 296 299 300 300 301 301 301 302 303 304 305 305 305 305 307 307 305 303 302 303 304 305 306 305 303 302 302 302 301 301 301 302 301 300 298 298 297 296 295 296 295 295 295 296 296 297 297 298 297 295 294 294 293 292 292 292 291 291 290 289 289 288 287 286 286 285 285 284 283 282 281 280 279 279 278 278 277 277 277
289 288 286 286 287 290 294 299 300 299 299 299 300 300 301 301 303 304 304 304 304 305 305 304 303 304 304 305 306 308 308 305 304 303 303 301 301 301 302 302 300 299 297 296 295 295 295 295 295 295 295 296 297 298 297 295 294 293 293 293 293 292 292 291 291 290 290 289 288 288 287 286 286 285 284 284 283 282 281 280 279 279 279 278 277 277
283 279 279 284 289 294 298 299 298 297 298 298 298 298 298 299 301 302 301 300 300 300 299 300 301 304 305 307 307 308 309 309 307 305 303 301 301 302 303 301 299 298 297 295 294 294 294 294 295 295 295 296 297 297 295 294 294 294 293 293 292 292 292 291 291 290 290 289 289 288 287 287 286 285 285 284 284 283 282 280 280 279 279 278 278 277
277 278 284 291 295 297 298 297 297 296 297 297 297 297 298 299 299 298 296 294 293 293 293 294 294 296 300 303 304 306 309 310 309 306 303 301 300 301 303 301 298 296 295 294 293 293 294 294 294 295 295 296 296 296 294 293 293 293 293 293 292 292 291 291 291 290 290 289 289 288 288 287 287 286 286 285 284 283 282 281 281 280 279 279 278 277
286 291 295 296 295 295 295 294 294 294 295 296 299 300 300 299 297 294 290 288 286 285 286 288 289 290 292 295 299 303 307 309 309 306 303 300 300 301 302 300 298 295 293 292 292 293 294 294 294 294 295 295 295 294 293 293 293 293 293 292 292 291 291 291 290 290 290 289 289 289 288 288 288 287 287 286 285 284 283 282 281 281 280 279 278 277
294 293 292 292 292 292 290 290 290 291 294 297 300 300 298 296 293 289 286 284 283 282 282 283 285 288 292 294 298 302 306 308 307 304 301 298 298 299 301 300 297 295 293 292 293 294 294 294 294 295 295 295 294 294 294 294 293 293 292 292 291 291 291 290 290 290 290 290 289 289 289 288 288 287 287 286 285 285 284 283 282 281 280 279 278 277
290 288 286 287 286 285 285 287 289 292 295 297 297 294 292 290 288 286 285 285 286 286 284 283 286 292 297 298 299 300 303 305 304 302 299 297 296 297 298 298 296 294 293 293 294 295 295 295 294 294 294 294 294 294 294 293 292 292 292 291 291 291 291 291 291 290 290 290 290 289 289 289 288 287 287 286 285 284 284 283 282 282 281 280 279 278
283 282 283 284 283 281 283 287 291 292 293 292 289 286 284 283 283 283 285 287 289 290 291 292 294 296 297 296 296 297 299 300 298 297 297 295 294 295 297 298 297 295 293 294 295 297 296 295 294 294 293 293 293 293 293 292 292 291 291 291 291 291 291 291 291 290 290 290 290 289 289 289 288 287 287 286 286 285 285 284 283 282 281 280 280 278
281 282 284 285 285 285 286 289 290 291 290 286 282 278 277 278 279 281 285 291 295 297 298 298 298 297 295 294 294 295 296 297 295 292 291 289 290 293 297 299 298 295 293 294 296 298 298 296 295 294 294 293 293 292 292 292 291 291 291 291 291 291 291 291 290 290 290 290 290 289 289 289 289 288 288 288 287 286 286 285 284 283 282 281 280 279
286 286 287 288 288 289 289 289 289 289 288 287 285 284 286 288 293 297 301 301 300 300 299 299 299 297 295 295 295 296 296 297 295 290 286 284 287 291 296 298 298 295 294 295 297 298 298 297 296 295 295 294 293 292 292 291 291 291 290 291 291 290 290 290 290 290 290 290 290 290 290 290 290 289 289 289 288 287 286 285 285 284 283 282 281 280
290 289 290 290 290 290 290 289 290 292 294 298 302 306 309 309 306 303 300 298 298 299 299 300 299 297 297 298 298 297 297 298 295 289 282 283 286 290 293 295 296 294 294 296 298 299 298 297 297 296 295 294 293 293 292 291 291 291 291 291 291 291 291 291 291 291 291 291 291 291 290 290 290 290 290 289 288 288 287 286 285 284 284 283 282 281
291 290 290 290 291 291 292 293 295 297 300 302 304 305 305 304 302 299 296 296 297 299 300 299 296 295 297 298 298 297 298 300 296 289 282 283 286 289 292 294 294 293 294 296 298 299 298 297 297 297 296 294 293 292 292 291 291 291 291 291 291 291 291 291 291 291 291 291 291 291 291 291 291 290 290 289 289 288 287 286 285 285 284 284 283 282
291 290 291 292 293 294 295 296 297 297 297 297 296 297 298 298 298 296 293 294 296 299 299 296 294 295 297 297 296 297 299 300 297 291 284 282 283 286 290 293 295 295 295 297 298 298 297 296 295 295 294 294 293 293 292 292 292 292 292 292 292 292 292 292 292 292 291 291 291 291 291 291 290 290 290 289 289 288 287 286 286 285 285 285 284 283
292 292 292 293 293 294 294 295 295 295 295 294 294 294 295 294 293 291 289 292 297 298 295 291 291 293 295 295 296 297 298 298 295 292 288 282 280 282 289 294 297 297 297 298 298 297 295 293 292 292 292 292 293 294 294 294 294 294 293 293 293 293 293 292 292 291 291 291 290 290 290 290 290 290 290 289 289 288 287 287 286 286 287 286 285 283
293 291 291 291 292 294 296 297 297 298 298 297 297 296 294 291 288 287 288 292 295 294 289 286 286 287 290 293 296 297 297 295 294 295 294 287 282 284 291 296 299 299 300 301 301 300 296 292 291 291 291 293 294 294 295 295 295 295 294 294 294 294 293 293 292 292 291 291 291 290 290 290 290 290 289 289 289 288 288 287 287 288 287 286 284 283
294 294 296 297 300 302 304 305 305 304 304 304 303 300 296 291 287 286 288 290 289 286 283 282 283 285 289 294 297 298 296 295 297 302 305 298 290 290 295 298 299 300 302 303 303 301 298 297 295 293 293 294 295 295 295 295 295 295 295 295 295 294 294 294 294 293 293 292 291 291 290 290 290 290 290 289 289 289 288 288 288 288 287 286 284 282
302 305 307 307 308 309 310 311 311 311 311 312 311 307 302 296 291 288 287 285 282 278 278 280 282 284 287 291 295 295 293 295 298 305 308 301 294 292 296 298 298 299 300 301 301 302 301 302 300 299 297 296 295 294 294 294 294 294 294 294 294 293 293 294 294 294 294 293 292 291 291 291 290 290 290 289 289 289 288 288 288 288 287 285 283 281
309 310 310 310 311 312 313 314 315 316 316 315 314 311 306 300 295 290 286 283 279 277 278 280 282 283 284 283 281 279 283 290 294 300 303 298 293 293 295 296 296 297 298 295 291 289 296 300 301 301 299 297 295 294 293 293 292 292 293 292 292 291 292 294 294 294 294 293 293 292 292 291 290 290 290 289 289 288 288 288 287 286 285 284 282 280
308 308 308 309 311 313 316 318 320 320 318 316 313 310 306 301 297 292 288 285 283 281 280 281 283 284 284 282 279 279 281 285 290 296 299 296 293 293 295 295 295 296 297 294 290 287 285 288 294 298 298 297 295 294 292 292 291 291 290 290 289 289 291 292 292 292 292 293 293 292 292 291 290 290 289 289 288 287 287 287 286 285 283 282 280 279
306 306 307 310 313 317 320 322 321 319 317 314 311 307 304 301 298 295 292 289 287 285 282 281 281 282 283 283 282 281 282 285 289 294 297 295 293 292 294 295 295 295 296 295 293 290 287 288 291 295 297 297 296 294 293 292 291 290 289 288 287 287 289 289 290 290 290 291 291 290 290 290 290 290 289 289 288 287 286 286 286 284 281 279 278 277
304 306 310 314 318 321 321 320 319 317 314 311 308 305 303 301 298 296 294 292 290 287 283 280 277 276 277 279 280 282 284 286 290 293 295 293 291 291 292 292 293 294 294 293 293 292 291 291 292 293 296 297 297 295 294 293 292 291 290 288 287 286 286 287 288 288 288 288 288 287 288 288 289 289 289 288 288 287 286 286 285 284 282 280 278 277
307 311 315 319 321 320 318 317 316 314 312 310 308 306 305 303 300 298 295 294 292 289 286 282 278 275 274 273 274 276 280 285 289 292 291 289 288 288 288 289 290 291 290 290 290 290 290 291 292 293 294 295 296 297 297 296 295 294 292 290 288 286 286 286 286 286 286 286 285 285 285 286 286 286 287 286 286 285 285 285 285 284 283 281 279 277
314 316 317 318 317 316 315 314 314 313 311 310 309 307 305 304 302 300 298 296 294 292 289 286 282 279 276 274 273 274 277 282 285 287 287 286 284 283 283 284 286 287 285 286 286 288 289 291 292 294 294 292 292 295 297 299 299 296 293 291 290 288 287 286 285 284 283 282 282 282 282 283 283 283 284 285 285 285 284 283 283 282 282 280 279 277
315 313 313 314 315 314 313 312 312 311 310 309 308 306 305 304 303 301 299 298 296 294 292 290 287 284 282 279 277 277 279 281 283 285 286 285 283 281 280 281 282 282 281 280 281 284 286 288 290 292 293 292 291 292 294 297 297 296 294 293 292 290 288 287 285 284 282 281 281 281 281 281 281 282 282 283 283 283 282 282 282 282 282 281 280 278
311 309 310 312 313 312 311 310 309 308 307 306 306 306 305 305 304 302 301 300 298 297 295 293 291 289 287 286 284 283 282 283 284 285 286 285 283 281 279 279 280 280 280 279 278 279 280 281 282 284 288 290 291 293 293 294 294 294 295 296 294 292 290 288 287 285 283 282 281 281 281 280 280 280 280 280 280 280 279 279 280 281 280 279 279 279
309 308 309 310 310 310 308 307 306 306 306 306 306 307 307 307 306 305 304 303 301 300 299 297 295 293 290 288 287 285 284 284 285 286 286 286 285 282 279 277 277 278 280 279 277 276 275 276 277 279 281 283 287 290 292 291 291 292 295 296 295 294 293 292 290 287 284 282 280 280 280 280 279 279 278 277 276 275 275 276 277 278 277 276 275 275
308 307 308 308 309 309 308 306 306 306 306 307 308 308 309 308 308 307 307 306 305 304 304 302 300 298 295 292 290 288 287 287 288 288 289 289 289 287 282 278 277 277 278 278 277 275 274 274 276 277 278 280 282 285 286 288 289 291 292 291 291 291 293 292 290 287 284 282 280 279 279 280 280 279 277 276 275 274 274 274 274 275 275 273 270 269
307 306 306 307 308 308 307 307 307 308 308 308 308 307 308 309 309 308 308 307 307 306 305 305 304 302 300 299 297 295 294 294 294 294 293 293 292 290 286 283 280 277 276 276 275 275 274 274 273 274 276 278 280 282 284 286 287 289 289 288 288 290 292 292 290 288 285 283 282 281 280 279 279 278 277 276 275 275 275 274 273 273 272 270 268 266
305 304 305 306 307 307 307 307 308 309 310 309 308 307 307 308 308 307 306 304 304 305 306 305 304 302 300 300 301 302 302 301 300 299 297 296 295 293 290 287 284 281 278 275 274 275 275 275 273 272 274 276 277 278 282 284 286 288 287 286 287 289 291 291 292 291 289 286 284 283 281 279 278 278 278 277 276 275 275 273 273 272 269 267 266 265
304 303 304 305 306 307 308 308 308 309 309 308 307 307 308 308 307 305 303 301 301 302 302 303 302 301 299 299 301 304 305 305 305 303 301 299 298 296 293 291 288 285 281 274 272 274 276 277 276 275 275 276 275 276 278 281 284 285 286 285 284 283 282 285 289 291 290 288 285 283 281 279 279 279 279 278 276 275 274 272 271 270 268 267 265 264
303 303 305 306 307 307 307 307 308 309 309 308 306 306 307 307 306 305 302 300 299 299 299 300 300 300 300 300 302 305 307 309 309 308 307 305 303 299 296 293 290 287 283 277 272 271 273 275 277 278 279 278 275 274 276 278 281 282 283 284 283 282 280 282 285 286 286 286 285 284 283 281 281 282 281 279 277 275 274 271 270 269 268 266 265 263
304 304 305 306 306 306 306 307 308 308 308 307 306 306 307 307 305 303 301 299 297 297 298 299 298 296 297 299 302 305 307 309 310 311 311 310 308 305 302 298 294 290 285 281 277 274 271 271 274 277 280 280 278 276 275 276 278 280 281 283 283 283 284 284 284 283 283 283 284 284 284 283 282 280 278 278 278 277 275 273 270 268 267 266 264 263
305 304 304 305 305 306 306 307 309 308 308 307 306 306 306 306 305 303 300 298 296 296 298 298 296 292 292 295 298 301 303 305 308 310 311 311 311 309 307 303 299 294 290 286 282 279 276 274 273 273 274 276 277 277 276 276 276 277 278 281 282 283 283 283 283 282 281 281 282 283 284 283 282 280 278 278 279 278 277 275 273 270 268 266 264 263
304 304 304 304 305 306 307 308 309 309 307 306 306 306 306 306 304 302 299 299 298 297 298 297 295 292 292 293 294 296 298 300 303 305 307 309 310 310 309 307 304 300 297 293 289 284 280 277 275 272 270 269 271 274 276 277 276 276 276 278 280 280 280 281 282 282 281 281 280 280 280 280 280 279 279 279 280 280 279 278 276 273 270 268 266 265
303 303 303 304 305 306 307 308 308 308 306 306 306 306 306 306 304 301 299 298 298 296 295 294 293 293 294 294 295 296 298 299 300 301 303 305 307 308 308 308 306 304 302 300 296 292 287 284 280 275 270 265 264 268 272 275 276 276 276 276 276 276 277 280 282 282 282 281 280 279 279 278 276 275 275 276 278 279 281 280 278 276 273 271 269 268
303 303 303 303 303 304 304 306 306 306 304 304 304 304 305 305 304 302 300 299 297 295 292 291 291 292 293 295 296 297 299 299 299 300 302 303 305 305 306 306 306 306 305 304 302 301 299 296 293 287 280 271 264 264 267 272 275 278 278 277 276 276 277 279 281 282 282 281 280 280 279 277 275 274 273 273 275 279 281 281 280 279 277 276 274 273
304 304 303 303 303 302 303 304 304 303 302 302 302 302 303 303 303 303 302 300 298 295 293 291 290 290 292 293 295 297 298 297 297 299 301 302 303 303 303 303 303 304 304 303 304 304 305 303 301 299 295 288 278 270 266 269 274 279 280 279 279 280 279 280 282 283 283 282 281 280 279 277 276 274 272 272 274 278 281 281 282 281 281 280 278 276
Height
817 816 816 816 816 815 814 813 813 812 810 809 808 808 807 806 805 804 803 802 801 800 799 798 797 797 796 795 795 794 793 793 792 791 791 790 789 788 788 787 786 785 785 784 783 782 782 781 780 779 779 778 778 777 776 775 775 774 773 773 772 771 770 770 769 768 768 767 766 766 765 764 764 763 763 762 762 761 761 760 760 759 759 758 758 758
815 815 815 815 815 814 813 812 812 811 810 808 807 807 805 804 803 803 802 801 800 799 798 797 796 795 794 794 793 793 792 791 791 790 789 788 787 786 786 785 784 783 783 782 781 780 780 779 778 778 777 776 776 775 774 773 773 772 771 770 770 769 768 768 767 766 766 765 764 763 763 762 762 761 761 760 760 759 759 758 758 757 757 756 756 755
814 814 814 814 813 813 812 811 811 810 809 808 807 806 805 803 802 801 800 799 798 798 797 796 795 794 793 792 792 791 790 790 789 788 787 786 785 784 784 783 782 781 781 780 779 778 778 777 777 776 775 774 774 773 772 772 771 770 769 768 768 767 766 766 765 764 763 763 762 762 761 760 760 759 758 758 758 757 756 756 755 755 754 754 753 753
813 813 813 813 812 812 811 810 809 809 808 807 806 805 804 803 801 800 799 798 797 796 795 794 794 793 792 791 790 789 789 788 787 786 785 784 783 783 782 781 780 779 779 778 778 777 776 775 775 774 773 773 772 771 771 770 769 768 767 767 766 765 764 763 763 762 761 761 760 759 759 758 758 757 756 756 755 754 754 753 753 752 752 751 751 751
813 813 812 812 811 810 810 809 808 808 807 806 805 804 803 802 801 799 798 797 796 795 794 793 793 792 791 790 788 788 787 786 785 784 783 783 782 781 780 779 778 778 777 776 776 775 774 774 773 772 772 771 770 769 768 768 767 766 765 764 763 763 762 761 760 760 759 758 758 757 756 756 755 754 754 753 753 752 752 751 750 750 749 749 749 748
812 812 811 811 810 809 808 808 808 807 805 804 803 803 802 801 800 798 797 796 795 794 793 792 791 790 789 788 787 786 785 784 783 783 782 781 780 779 778 777 777 776 775 775 774 773 773 772 771 770 770 769 768 767 767 766 765 764 763 762 762 761 760 759 758 758 757 756 755 755 754 753 753 752 752 751 750 750 749 749 748 748 747 747 746 746
810 810 810 810 809 808 808 807 806 806 805 803 802 801 800 799 798 797 796 795 794 793 792 791 790 789 788 787 786 785 784 783 782 780 779 778 778 777 776 776 775 774 773 773 772 772 771 770 769 768 768 767 766 765 764 763 763 762 761 760 759 758 758 757 756 755 754 754 753 753 752 751 751 750 749 749 748 748 747 747 746 745 745 744 744 743
809 809 809 809 808 807 807 806 805 805 804 803 801 800 798 798 797 796 795 794 793 792 791 789 788 787 786 785 784 783 782 781 779 778 778 777 776 775 774 774 773 773 772 771 770 770 769 768 767 767 766 765 764 763 762 761 760 759 758 758 757 756 755 754 754 753 752 752 751 750 750 749 748 748 747 746 746 745 745 744 743 743 743 742 741 741
808 808 808 808 808 806 805 804 804 804 803 802 801 799 798 796 795 794 793 793 792 791 790 788 787 785 784 783 783 782 780 779 778 777 776 775 774 773 773 772 771 771 770 769 768 768 767 766 765 764 763 763 762 761 760 759 758 757 756 755 754 754 753 752 751 751 750 749 748 748 747 747 746 745 745 744 743 743 742 742 741 741 740 739 739 739
808 808 807 807 807 806 805 803 802 802 802 801 800 799 798 796 794 793 792 791 791 790 789 788 786 784 783 782 781 780 779 778 777 776 775 774 773 772 771 771 770 769 768 768 767 766 765 764 763 762 761 760 759 758 758 756 756 755 754 753 752 751 750 750 749 748 748 747 746 746 745 744 743 743 742 742 741 740 740 739 739 738 738 737 736 736
807 807 807 806 805 805 804 803 801 801 800 799 798 798 797 796 795 793 791 790 789 788 788 787 786 784 782 780 779 778 777 776 774 774 773 772 772 771 770 769 768 767 766 765 765 764 763 762 761 760 759 758 757 756 755 754 753 752 751 750 749 749 748 747 746 746 745 744 744 743 743 742 741 740 740 739 739 738 737 737 736 735 735 734 734 733
806 806 806 805 804 803 803 802 801 800 799 798 798 797 796 795 795 793 791 789 788 787 786 785 784 783 782 780 778 777 775 774 773 771 771 770 769 768 768 767 766 765 764 763 762 761 760 759 758 758 756 755 754 753 753 752 751 750 749 748 747 746 745 745 744 743 743 742 742 741 740 739 739 738 737 736 736 735 734 734 734 733 732 732 731 730
806 805 805 804 803 803 802 801 800 799 798 798 797 796 795 794 793 793 791 789 788 786 785 784 783 782 781 779 778 776 774 773 771 770 769 768 768 767 766 765 764 763 762 761 759 759 758 757 756 755 754 753 752 751 750 749 748 747 746 745 744 744 743 743 742 741 740 740 739 738 738 737 736 735 734 734 733 733 732 731 731 730 729 729 728 728
805 804 804 803 802 802 801 800 799 798 798 797 796 795 794 793 792 791 790 788 787 786 785 783 782 780 779 778 777 775 773 772 770 769 768 767 767 766 765 763 762 761 760 759 757 756 756 755 753 752 751 750 749 748 747 746 745 745 744 743 743 742 741 740 739 739 738 737 736 736 735 734 733 733 732 731 730 730 729 729 728 727 727 726 725 725
804 803 803 802 801 800 800 799 798 797 797 796 795 794 793 792 791 790 789 787 786 785 783 782 780 778 778 776 775 774 773 771 769 768 766 765 765 765 764 762 760 759 758 757 755 754 753 753 751 750 748 747 746 745 745 744 743 743 742 741 740 739 739 738 737 736 735 734 734 733 732 731 730 730 729 728 727 727 726 725 725 724 724 723 723 722
803 803 802 801 800 799 798 798 798 796 795 795 794 793 792 791 790 789 788 787 785 783 782 780 778 776 775 774 774 773 772 770 769 767 765 763 763 763 763 761 759 757 756 755 753 752 751 750 749 748 746 745 744 743 743 742 741 740 739 739 738 737 736 735 734 734 733 732 731 730 729 729 728 727 726 725 724 724 723 723 722 721 721 720 719 719
801 801 800 799 798 798 798 797 797 795 794 793 793 792 791 790 789 788 787 786 784 783 781 779 778 775 773 772 772 772 771 769 768 766 764 761 760 761 761 760 758 755 753 753 752 750 749 748 747 746 744 743 742 741 740 740 739 738 737 736 735 734 734 733 732 731 730 729 728 728 727 726 725 724 723 723 722 721 720 720 719 718 718 717 717 716
800 800 799 798 798 797 797 796 795 794 793 792 791 790 790 789 788 787 786 785 783 781 779 778 777 775 773 770 769 770 770 769 767 764 762 760 758 758 759 758 756 754 752 750 749 748 747 746 745 743 742 741 740 739 739 738 737 736 734 734 733 732 731 730 729 728 727 726 725 725 724 723 722 721 720 719 719 718 717 717 716 715 715 714 714 713
799 799 798 798 797 796 796 795 794 793 792 791 790 789 788 787 787 786 784 783 781 780 778 777 775 774 772 770 768 768 769 768 766 763 761 758 756 756 756 756 754 752 750 748 747 746 745 744 743 742 740 739 738 737 736 735 734 733 732 731 730 729 728 727 726 725 724 724 723 722 721 720 719 719 718 717 716 715 714 714 713 713 712 711 711 710
798 798 798 797 796 795 794 793 793 792 791 790 789 788 787 786 784 783 782 780 779 778 777 776 774 773 771 769 767 767 767 767 765 763 760 758 755 754 754 754 753 750 748 746 745 744 743 742 740 739 738 737 736 735 734 733 732 731 730 729 728 727 726 725 724 723 722 721 720 719 718 717 716 716 715 714 713 713 712 711 710 710 709 708 708 707
797 796 796 796 795 794 793 792 791 791 790 789 789 788 786 784 782 781 779 778 778 777 776 774 773 771 770 768 767 766 766 766 764 762 759 757 754 752 752 752 751 748 746 744 743 742 742 740 739 737 736 735 734 733 732 731 730 729 727 726 725 724 723 722 721 720 719 718 717 716 715 715 714 713 712 711 710 709 709 708 707 707 706 705 705 704
796 795 794 794 794 793 791 790 790 789 789 788 787 786 783 782 780 779 778 777 776 775 774 773 772 771 769 768 766 764 765 765 764 762 759 756 752 750 750 750 749 747 744 742 741 740 739 738 737 735 734 733 732 731 730 729 727 726 725 724 723 722 721 719 719 718 717 715 714 714 713 712 711 710 709 709 708 707 706 705 704 704 703 702 702 701
794 793 793 792 792 791 790 789 788 788 787 786 784 783 781 780 778 778 777 776 775 774 773 772 770 769 768 766 764 763 763 763 763 761 759 756 751 748 748 748 748 745 743 741 739 739 737 736 734 733 732 730 729 729 727 726 725 724 722 721 720 719 718 717 716 715 714 713 712 711 710 709 708 707 706 706 705 704 703 702 701 701 700 699 699 698
793 792 791 791 790 789 789 788 787 786 785 783 782 781 779 779 778 777 776 775 774 773 772 770 769 767 766 765 763 762 761 761 761 760 758 755 751 748 747 747 746 743 741 739 738 737 735 734 732 731 729 728 727 726 725 724 722 721 720 719 718 716 715 714 713 712 711 710 709 708 707 706 705 704 704 703 702 701 700 699 699 698 697 696 695 695
791 790 790 789 788 788 787 786 785 784 783 783 782 781 779 778 777 776 775 774 773 772 771 769 768 766 764 763 762 760 759 759 759 759 757 754 750 747 746 746 745 742 739 737 736 736 734 732 730 728 727 726 724 724 722 721 720 718 717 716 715 714 713 712 711 710 709 708 707 705 704 704 703 702 701 700 699 698 697 697 696 695 694 693 693 692
790 789 788 788 787 787 786 785 784 784 783 782 781 779 778 777 776 774 773 772 772 771 770 768 766 764 763 762 760 758 758 758 758 757 756 753 749 746 744 744 743 741 738 735 734 734 733 730 728 726 725 723 722 721 719 718 717 716 714 713 712 711 710 709 708 707 706 705 704 703 702 701 700 699 698 697 696 695 694 694 693 692 691 690 689 689
788 787 787 786 786 785 784 784 783 782 781 781 780 779 778 776 774 773 772 771 771 770 769 768 765 763 762 761 759 757 756 756 756 755 754 752 749 745 743 742 742 740 737 734 733 732 731 729 726 724 723 721 719 718 717 716 714 713 712 711 710 709 708 707 706 704 703 702 701 700 699 698 697 696 695 694 693 693 692 691 690 689 689 688 687 685
786 786 785 785 784 784 783 782 781 780 779 778 778 777 776 775 773 772 770 770 770 769 768 767 765 763 761 760 758 756 754 754 753 753 752 751 748 744 742 741 740 739 736 733 730 729 729 727 725 722 720 719 717 716 714 713 712 711 710 709 707 706 705 704 703 702 700 699 698 697 696 695 694 693 692 691 691 690 689 688 688 687 686 685 684 682
784 784 783 783 783 782 781 780 779 778 777 776 775 774 774 773 772 771 770 769 769 768 767 766 765 763 761 759 757 754 753 752 751 751 750 749 746 743 741 740 739 738 736 732 729 726 725 724 723 721 719 717 716 714 713 711 710 709 707 706 704 703 702 701 700 699 698 696 695 694 693 692 691 690 689 689 688 687 686 685 685 684 683 682 681 679
783 782 782 781 780 780 779 778 777 775 774 773 773 773 772 771 771 770 769 768 768 768 766 765 763 762 761 759 756 753 750 749 749 750 749 748 745 742 740 739 739 737 736 733 728 723 720 719 720 719 718 716 714 712 711 709 708 706 704 703 701 700 699 698 697 696 694 694 692 691 690 689 688 687 687 686 685 684 684 683 682 682 680 679 678 677
781 780 779 778 778 777 776 775 774 773 773 772 771 771 770 770 769 768 768 768 767 766 765 764 763 761 760 759 757 753 748 746 747 748 748 747 744 741 740 739 737 736 736 735 731 725 718 715 715 716 716 714 712 710 709 707 706 704 703 701 699 697 696 695 694 693 692 690 689 688 687 686 685 684 684 683 682 681 681 680 680 679 678 677 675 674
779 778 778 777 776 775 774 773 773 772 771 770 769 769 768 768 768 767 767 766 766 765 764 763 761 760 759 758 757 753 748 746 746 747 748 746 743 740 739 738 736 734 734 734 733 729 723 716 712 712 713 712 710 708 706 705 704 702 701 699 697 695 694 693 692 691 689 688 687 685 684 683 683 682 681 680 679 679 678 677 677 677 676 674 673 672
778 777 776 775 774 773 773 772 771 770 769 768 768 768 767 767 766 766 765 765 764 763 763 762 760 759 758 757 755 752 748 745 745 746 746 745 742 739 738 737 735 734 732 731 731 729 725 719 714 711 710 709 708 706 704 703 702 700 699 698 695 693 691 690 690 688 687 685 684 683 681 680 679 679 678 677 676 675 675 674 674 674 674 672 671 669
776 775 774 774 773 772 771 770 769 769 768 768 767 767 766 765 765 764 764 763 763 762 762 761 759 758 756 755 753 749 746 744 744 745 745 744 742 739 737 736 734 733 731 729 728 726 724 720 716 713 709 706 704 704 703 701 699 698 697 696 694 691 689 688 687 686 684 683 681 680 678 677 676 675 674 674 673 672 672 671 671 671 671 670 669 668
775 774 773 772 771 770 769 769 768 768 767 767 766 765 765 764 763 763 762 762 761 760 759 759 758 757 755 753 751 748 744 742 742 743 743 743 741 738 736 734 733 732 730 728 726 724 721 718 715 713 709 705 701 700 700 699 698 696 694 693 692 690 688 686 685 684 682 680 679 677 676 674 673 672 671 670 670 669 669 669 668 668 668 667 667 666
773 773 772 771 770 769 768 768 767 767 766 765 765 764 763 763 762 761 760 759 759 758 757 756 756 754 753 752 750 747 743 741 740 741 741 741 739 738 735 733 731 730 729 726 724 722 720 716 714 712 709 706 701 697 696 695 695 694 692 691 689 688 686 684 683 682 680 678 676 675 673 672 671 669 668 668 667 667 666 666 665 665 665 664 664 663
773 772 771 770 769 769 768 767 766 766 765 764 763 763 762 761 760 759 758 758 757 756 755 754 753 752 751 749 748 745 743 740 739 739 739 739 738 736 734 731 729 729 728 726 723 721 719 716 713 709 708 705 701 697 694 692 692 691 689 688 687 685 683 682 681 679 678 676 674 672 671 670 669 667 666 665 664 664 664 663 662 662 662 661 661 660
772 771 770 769 769 768 767 766 765 764 764 763 762 761 760 759 758 758 756 755 754 753 753 751 750 749 748 747 745 743 741 739 737 736 736 736 735 734 732 729 728 726 726 724 722 720 718 715 712 709 705 702 700 697 694 692 690 688 686 685 684 683 681 679 678 677 675 674 672 670 669 668 666 665 664 663 662 661 660 659 659 659 658 658 657 657
771 770 769 768 768 767 766 765 764 763 763 762 761 759 758 758 757 756 755 753 753 751 750 749 748 746 744 743 742 740 739 737 735 734 734 733 733 732 730 728 726 724 723 722 721 719 717 714 712 709 705 701 697 694 693 691 689 687 684 682 680 679 678 677 676 674 673 672 670 668 666 665 664 663 662 660 659 659 658 656 656 655 655 654 654 653
770 769 768 768 767 766 766 765 763 763 761 760 759 758 757 756 755 753 753 752 750 749 748 747 746 744 742 740 739 738 736 735 733 732 731 731 730 729 728 726 724 722 720 719 718 717 715 713 710 707 704 701 697 694 691 689 687 685 684 681 678 675 674 674 673 672 670 669 668 666 664 662 661 660 659 658 657 656 655 654 653 653 652 652 651 650
769 768 768 767 766 765 765 763 763 762 760 759 758 757 756 755 753 752 750 749 748 748 747 745 743 742 739 738 736 735 734 732 731 730 729 728 727 726 725 724 722 720 719 717 715 714 712 710 708 705 702 700 697 693 690 687 685 684 683 680 677 673 671 671 670 669 668 666 665 664 662 660 659 658 657 656 654 653 652 652 651 650 649 649 649 648
768 768 767 766 765 764 763 763 762 761 759 758 757 756 755 754 753 751 750 748 747 746 745 744 742 740 737 734 733 731 731 730 729 728 727 725 725 724 723 721 719 718 717 715 713 711 709 708 706 703 700 698 695 692 688 684 682 681 681 679 675 672 669 667 666 666 666 664 662 661 660 658 657 655 654 653 652 650 649 649 648 647 647 646 645 644
768 767 766 765 764 763 762 761 760 759 758 757 756 755 754 753 752 751 749 748 746 745 744 743 741 739 736 732 729 728 727 727 726 726 724 723 722 721 720 719 717 716 714 713 710 708 706 705 703 700 698 696 694 691 687 683 680 678 677 676 674 672 669 664 662 663 663 661 660 659 657 656 654 653 651 650 649 648 646 646 645 644 643 642 641 640
767 766 765 764 763 762 761 760 759 758 757 756 755 754 753 752 752 750 749 748 746 744 743 741 740 738 735 732 729 726 724 723 723 723 722 721 720 719 718 716 715 714 712 711 709 706 703 702 699 697 695 694 692 689 685 682 679 676 674 673 672 671 668 664 661 660 659 658 657 656 654 653 652 650 649 647 646 644 644 642 641 640 639 638 638 636
766 765 764 763 762 761 760 759 758 757 756 755 754 753 752 751 750 749 748 747 745 743 742 741 739 737 734 731 728 725 723 720 719 719 719 719 718 717 716 714 713 711 710 708 707 704 702 699 696 694 692 691 689 686 683 680 677 674 671 670 669 668 665 662 660 659 657 655 654 653 651 650 649 648 646 644 642 641 640 639 638 636 635 634 633 633
765 764 763 762 761 760 759 758 757 756 755 754 753 752 751 750 749 748 747 746 744 742 741 740 739 737 734 730 728 725 722 719 717 716 715 715 715 714 713 712 711 709 707 705 704 702 700 697 694 692 690 688 685 683 680 678 675 672 669 667 666 664 662 660 658 657 655 654 651 649 648 648 647 645 643 641 639 638 637 636 635 633 632 631 630 629
764 763 762 761 760 759 758 757 756 755 753 753 751 750 750 749 748 747 745 744 743 741 740 739 737 736 733 730 728 726 723 720 717 714 713 712 711 710 710 709 708 706 705 703 701 699 696 694 692 690 688 686 682 679 676 674 673 670 667 664 663 661 659 657 655 654 653 651 649 647 646 645 644 643 640 638 636 634 633 632 631 630 629 628 627 626
763 762 761 760 759 758 757 756 755 754 753 751 750 749 748 748 747 746 744 743 742 740 739 737 735 734 732 729 727 725 724 721 718 714 712 710 709 708 707 705 704 703 702 700 698 696 694 691 689 688 686 684 680 676 672 670 669 667 665 663 661 659 656 654 652 650 649 648 646 644 644 643 642 639 637 634 632 630 629 628 628 627 626 625 624 623
762 761 760 759 758 757 756 754 753 753 752 750 749 748 747 746 746 745 743 742 740 739 738 736 734 732 730 728 725 724 722 720 717 714 712 710 708 706 704 703 701 700 698 696 694 692 690 688 686 684 683 681 678 674 670 667 665 664 662 660 659 656 654 651 649 647 646 645 643 642 641 640 639 637 635 632 629 627 625 624 624 623 623 622 621 620
761 760 759 758 757 756 755 754 753 752 751 749 748 747 745 744 743 743 742 741 739 738 736 735 733 731 729 726 724 722 721 719 716 713 711 709 707 705 703 701 699 697 695 693 690 689 687 684 682 680 679 678 676 673 669 665 662 661 659 658 656 654 651 648 646 644 643 642 640 639 638 637 636 634 633 630 627 624 622 621 620 620 619 619 618 617
760 759 758 757 756 755 754 753 752 751 749 748 747 746 744 743 742 741 740 739 738 736 734 733 731 729 727 725 723 721 719 717 715 712 709 708 706 704 702 700 698 696 694 691 689 686 684 681 678 675 673 673 673 671 668 664 661 658 656 654 652 651 649 646 644 642 641 639 638 636 635 634 633 632 630 628 625 622 619 617 616 616 616 616 615 614